Tracking 35274 objects as of 12-Sep-2026
HD Live streaming from Space Station
objects crossing your sky now

SL-6 DEB


SL-6 DEB is no longer on orbit


NORAD ID: 9581
Int'l Code: 1976-116F
Launch date: December 2, 1976
Source: Commonwealth of Independent States (former USSR) (CIS)
Launch site: PLESETSK MISSILE AND SPACE COMPLEX (PKMTR)
Decay date: 1977-01-11

Note: This is SATELLITE DEBRIS
Your satellite tracking list
Your tracking list is empty




NASA's NSSDC Master Catalog

Two Line Element Set (TLE):
1 09581U 76116  F 76342.78504571  .00292677 +00000-0 +00000-0 0  9996
2 09581 062.8399 041.5931 0303047 119.5934 243.5706 15.50242996000880
Source of the keplerian elements: AFSPC